Winona, MN

11:45 PM CST on November 18, 2019 (GMT -0600)
Winona Municipal-Conrad

Weather History for KONA - July, 2019

Change the Weather History Date:

Sunday, July 21, 2019

  Actual Average Record
Temperature  
Mean Temperature 69 °F -  
Max Temperature 78 °F 81 °F 96 °F (2002)
Min Temperature 60 °F 61 °F 48 °F (2000)
Cooling Degree Days 4    
Growing Degree Days 19 (Base 50)    
Moisture  
Dew Point 61 °F    
Average Humidity 73    
Maximum Humidity 100    
Minimum Humidity 44    
Precipitation  
Precipitation 0.00 in - - ()
Sea Level Pressure  
Sea Level Pressure 30.04 in    
Wind  
Wind Speed 3 mph (NNW)    
Max Wind Speed 10 mph    
Max Gust Speed -    
Visibility 9 miles    
Events      
Averages and records for this station are not official NWS values.
T = Trace of Precipitation, MM = Missing Value Source: NWS Daily Summary

Daily Weather History Graph

Daily Weather History Graph

Search for Another Location

Airport or City:

Astronomy

Jul. 21, 2019 Rise Set
Actual Time 5:43 AM CDT 8:42 PM CDT
Civil Twilight 5:08 AM CDT 9:17 PM CDT
Nautical Twilight 4:24 AM CDT 10:00 PM CDT
Astronomical Twilight 3:32 AM CDT 10:52 PM CDT
Moon 11:28 PM CDT (7/21) 10:11 AM CDT (7/21)
Length of Visible Light 16h 08m
Length of Day
14h 59m
Waning Gibbous, 80% of the Moon is Illuminated
Jul 21
Waning Gibbous
Jul 24
Last Quarter
Jul 31
New
Aug 7
First Quarter
Aug 15
Full

Hourly Weather History & Observations

Time (CDT) Temp. Dew Point Humidity Pressure Visibility Wind Dir Wind Speed Gust Speed Precip Events Conditions
12:55 AM 66.2 °F 62.6 °F 88% 29.97 in 10.0 mi NNW 3.5 mph - N/A   Scattered Clouds
1:55 AM 66.2 °F 64.4 °F 94% 29.98 in 10.0 mi NW 4.6 mph - N/A   Clear
2:55 AM 62.6 °F 60.8 °F 94% 29.98 in 10.0 mi WNW 3.5 mph - N/A   Clear
3:55 AM 60.8 °F 59.0 °F 94% 29.99 in 4.0 mi NW 4.6 mph - N/A   Clear
4:55 AM 62.6 °F 60.8 °F 94% 29.99 in 10.0 mi Calm Calm - N/A   Clear
5:55 AM 62.6 °F 60.8 °F 94% 30.00 in 0.8 mi WNW 3.5 mph - N/A   Overcast
6:55 AM 60.8 °F 60.8 °F 100% 30.01 in 1.8 mi Calm Calm - N/A   Overcast
7:55 AM 62.6 °F 62.6 °F 100% 30.04 in 10.0 mi Calm Calm - N/A   Clear
8:55 AM 69.8 °F 66.2 °F 88% 30.04 in 10.0 mi Calm Calm - N/A   Clear
9:55 AM 73.4 °F 62.6 °F 69% 30.05 in 10.0 mi Calm Calm - N/A   Clear
10:55 AM 75.2 °F 62.6 °F 65% 30.06 in 10.0 mi Calm Calm - N/A   Clear
11:55 AM 75.2 °F 62.6 °F 65% 30.07 in 10.0 mi Calm Calm - N/A   Clear
12:55 PM 78.8 °F 59.0 °F 51% 30.06 in 10.0 mi North 4.6 mph - N/A   Clear
1:55 PM 78.8 °F 55.4 °F 44% 30.05 in 10.0 mi North 8.1 mph - N/A   Clear
2:55 PM 78.8 °F 55.4 °F 44% 30.05 in 10.0 mi NNW 10.4 mph - N/A   Clear
3:55 PM 78.8 °F 57.2 °F 47% 30.05 in 10.0 mi NNW 6.9 mph - N/A   Clear
4:55 PM 78.8 °F 55.4 °F 44% 30.04 in 10.0 mi NNE 5.8 mph - N/A   Clear
5:55 PM 77.0 °F 57.2 °F 50% 30.04 in 10.0 mi North 3.5 mph - N/A   Clear
6:55 PM 77.0 °F 59.0 °F 54% 30.05 in 10.0 mi NNW 6.9 mph - N/A   Clear
7:55 PM 75.2 °F 60.8 °F 61% 30.06 in 10.0 mi NW 4.6 mph - N/A   Clear
8:55 PM 73.4 °F 64.4 °F 73% 30.07 in 10.0 mi NW 3.5 mph - N/A   Clear
9:55 PM 69.8 °F 62.6 °F 78% 30.07 in 10.0 mi NW 3.5 mph - N/A   Clear
10:55 PM 69.8 °F 62.6 °F 78% 30.07 in 10.0 mi NW 4.6 mph - N/A   Clear
11:55 PM 69.8 °F 64.4 °F 83% 30.08 in 10.0 mi NW 5.8 mph - N/A   Mostly Cloudy